QPF
0.06 0.07 0.07 0.06 0.08 0.11 0.12 0.11 0.12 0.13 0.12 0.12 0.13 0.17 0.20 0.24 0.24 0.22 0.18 0.14 0.12 0.11 0.08 0.07 0.06 0.06 0.07 0.08 0.07 0.06 0.07 0.07 0.07 0.04 0.03 0.05 0.08 0.09 0.07 0.05 0.03 0.02 0.02
0.05 0.05 0.05 0.05 0.08 0.09 0.10 0.11 0.11 0.12 0.12 0.12 0.12 0.15 0.17 0.22 0.24 0.23 0.19 0.16 0.14 0.12 0.09 0.08 0.06 0.06 0.06 0.07 0.06 0.05 0.06 0.06 0.07 0.04 0.03 0.04 0.06 0.08 0.07 0.04 0.03 0.02 0.03
0.05 0.04 0.05 0.08 0.11 0.10 0.12 0.12 0.09 0.09 0.10 0.11 0.13 0.17 0.17 0.17 0.18 0.17 0.16 0.17 0.15 0.13 0.11 0.08 0.08 0.07 0.08 0.10 0.09 0.07 0.05 0.05 0.07 0.05 0.03 0.02 0.03 0.05 0.06 0.04 0.03 0.03 0.03
0.04 0.04 0.06 0.08 0.09 0.11 0.14 0.13 0.09 0.07 0.08 0.09 0.12 0.13 0.14 0.15 0.16 0.15 0.15 0.16 0.16 0.14 0.12 0.12 0.12 0.12 0.12 0.12 0.10 0.07 0.05 0.06 0.06 0.06 0.05 0.04 0.04 0.04 0.05 0.04 0.04 0.04 0.04
0.04 0.03 0.03 0.06 0.08 0.09 0.10 0.10 0.09 0.09 0.11 0.13 0.12 0.14 0.15 0.16 0.18 0.18 0.15 0.15 0.15 0.15 0.14 0.13 0.12 0.13 0.12 0.12 0.11 0.10 0.09 0.08 0.07 0.08 0.07 0.06 0.06 0.07 0.07 0.06 0.05 0.04 0.03
0.03 0.03 0.03 0.04 0.05 0.05 0.06 0.07 0.08 0.10 0.11 0.13 0.14 0.13 0.12 0.14 0.17 0.17 0.15 0.15 0.16 0.14 0.12 0.12 0.14 0.16 0.15 0.14 0.11 0.09 0.09 0.08 0.09 0.10 0.08 0.07 0.06 0.06 0.05 0.06 0.05 0.04 0.03
0.02 0.03 0.04 0.05 0.07 0.06 0.06 0.08 0.11 0.11 0.11 0.11 0.11 0.11 0.10 0.12 0.14 0.15 0.14 0.14 0.15 0.13 0.13 0.14 0.14 0.14 0.16 0.15 0.15 0.12 0.10 0.09 0.08 0.08 0.07 0.06 0.05 0.05 0.05 0.05 0.04 0.04 0.04
0.04 0.04 0.07 0.07 0.08 0.06 0.07 0.09 0.11 0.12 0.12 0.10 0.10 0.09 0.09 0.12 0.14 0.14 0.13 0.13 0.15 0.15 0.13 0.12 0.12 0.12 0.12 0.13 0.14 0.14 0.12 0.11 0.09 0.07 0.06 0.06 0.06 0.06 0.06 0.05 0.05 0.05 0.05
0.04 0.05 0.06 0.07 0.07 0.06 0.07 0.09 0.08 0.08 0.09 0.09 0.08 0.09 0.09 0.10 0.10 0.11 0.11 0.12 0.16 0.17 0.17 0.16 0.14 0.13 0.14 0.13 0.11 0.11 0.10 0.09 0.08 0.07 0.06 0.06 0.06 0.06 0.06 0.06 0.06 0.07 0.07
0.04 0.05 0.07 0.09 0.09 0.07 0.07 0.08 0.08 0.07 0.07 0.06 0.06 0.07 0.09 0.08 0.08 0.07 0.07 0.09 0.10 0.11 0.14 0.15 0.16 0.16 0.16 0.13 0.11 0.11 0.09 0.07 0.05 0.05 0.05 0.06 0.06 0.06 0.06 0.06 0.06 0.07 0.07
0.05 0.06 0.07 0.08 0.07 0.06 0.07 0.08 0.09 0.09 0.08 0.07 0.06 0.06 0.07 0.06 0.08 0.08 0.09 0.09 0.08 0.09 0.11 0.13 0.14 0.15 0.14 0.12 0.09 0.08 0.06 0.04 0.03 0.03 0.03 0.03 0.04 0.04 0.05 0.05 0.05 0.06 0.08
0.05 0.06 0.07 0.09 0.07 0.06 0.05 0.07 0.09 0.11 0.11 0.08 0.06 0.05 0.06 0.06 0.07 0.10 0.14 0.16 0.16 0.13 0.13 0.13 0.12 0.11 0.10 0.09 0.06 0.04 0.03 0.02 0.02 0.01 0.01 0.02 0.02 0.02 0.03 0.04 0.05 0.07 0.08
0.07 0.06 0.05 0.06 0.06 0.04 0.05 0.06 0.07 0.09 0.10 0.08 0.06 0.05 0.05 0.05 0.07 0.09 0.11 0.12 0.13 0.11 0.09 0.07 0.05 0.05 0.04 0.03 0.02 0.02 0.01 0.01 0.01 0.01 0.01 0.01 0.01 0.02 0.03 0.03 0.04 0.04 0.04
0.08 0.06 0.04 0.03 0.03 0.03 0.03 0.03 0.04 0.04 0.05 0.05 0.05 0.04 0.04 0.03 0.03 0.03 0.04 0.06 0.06 0.05 0.03 0.03 0.02 0.02 0.01 0.01 0.01 0.01 0.01 0.01 0.02 0.02 0.02 0.03 0.03 0.02 0.02 0.02 0.01 0.01 0.01
0.03 0.04 0.04 0.03 0.03 0.03 0.02 0.02 0.02 0.02 0.03 0.03 0.03 0.02 0.02 0.02 0.02 0.02 0.02 0.02 0.02 0.02 0.01 0.01 0.01 0.01 0.01 0.01 0.01 0.01 0.01 0.01 0.01 0.01 0.01 0.01 0.01 0.00 0.00 0.00 0.00 0.00 0.00
0.02 0.02 0.03 0.02 0.02 0.02 0.01 0.01 0.01 0.01 0.02 0.02 0.02 0.01 0.01 0.02 0.02 0.02 0.02 0.01 0.01 0.00 0.00 0.00 0.00 0.00 0.00 0.01 0.01 0.01 0.01 0.00 0.00 0.00 0.00 0.00 0.00 0.00 0.00 0.00 0.00 0.00 0.00
0.03 0.03 0.02 0.02 0.01 0.01 0.01 0.00 0.00 0.01 0.02 0.03 0.02 0.01 0.02 0.03 0.02 0.02 0.02 0.02 0.01 0.00 0.00 0.00 0.00 0.00 0.00 0.01 0.01 0.01 0.01 0.00 0.00 0.00 0.00 0.00 0.00 0.00 0.00 0.00 0.00 0.00 0.00
0.02 0.02 0.02 0.02 0.02 0.01 0.01 0.00 0.00 0.00 0.01 0.01 0.01 0.02 0.01 0.01 0.01 0.01 0.02 0.01 0.01 0.00 0.00 0.00 0.00 0.00 0.00 0.00 0.00 0.00 0.00 0.00 0.00 0.00 0.00 0.00 0.00 0.00 0.00 0.00 0.00 0.00 0.00
0.02 0.02 0.02 0.01 0.02 0.01 0.01 0.01 0.01 0.01 0.01 0.00 0.00 0.00 0.00 0.00 0.00 0.00 0.00 0.00 0.00 0.00 0.00 0.00 0.00 0.00 0.00 0.00 0.00 0.00 0.00 0.00 0.00 0.00 0.00 0.00 0.00 0.00 0.00 0.00 0.00 0.00 0.00
0.02 0.02 0.01 0.01 0.01 0.01 0.01 0.01 0.01 0.00 0.00 0.00 0.00 0.00 0.00 0.00 0.00 0.00 0.00 0.00 0.00 0.00 0.00 0.00 0.00 0.00 0.00 0.00 0.00 0.00 0.00 0.00 0.00 0.00 0.00 0.00 0.00 0.00 0.00 0.00 0.00 0.00 0.00
0.02 0.02 0.02 0.01 0.01 0.01 0.01 0.01 0.00 0.00 0.00 0.01 0.01 0.01 0.00 0.00 0.00 0.00 0.00 0.00 0.00 0.00 0.00 0.00 0.00 0.00 0.00 0.00 0.00 0.00 0.00 0.00 0.00 0.00 0.00 0.00 0.00 0.00 0.00 0.00 0.00 0.00 0.00
0.01 0.01 0.01 0.02 0.02 0.02 0.02 0.02 0.01 0.01 0.01 0.01 0.01 0.00 0.00 0.00 0.00 0.00 0.00 0.00 0.00 0.00 0.00 0.00 0.00 0.00 0.00 0.00 0.00 0.00 0.00 0.00 0.00 0.00 0.00 0.00 0.00 0.00 0.00 0.00 0.00 0.00 0.00
0.01 0.01 0.00 0.00 0.01 0.01 0.01 0.01 0.01 0.01 0.00 0.00 0.00 0.00 0.00 0.00 0.00 0.00 0.00 0.00 0.00 0.00 0.00 0.00 0.00 0.00 0.00 0.00 0.00 0.00 0.00 0.00 0.00 0.00 0.00 0.00 0.00 0.00 0.00 0.00 0.00 0.00 0.00
0.01 0.01 0.01 0.01 0.01 0.01 0.01 0.00 0.00 0.00 0.00 0.00 0.00 0.00 0.00 0.00 0.00 0.00 0.00 0.00 0.00 0.00 0.00 0.00 0.00 0.00 0.00 0.00 0.00 0.00 0.00 0.00 0.00 0.00 0.00 0.00 0.00 0.00 0.00 0.00 0.00 0.00 0.00
0.01 0.01 0.01 0.00 0.00 0.00 0.00 0.00 0.00 0.00 0.00 0.00 0.00 0.00 0.00 0.00 0.00 0.00 0.00 0.00 0.00 0.00 0.00 0.00 0.00 0.00 0.00 0.00 0.00 0.00 0.00 0.00 0.01 0.01 0.00 0.00 0.00 0.00 0.00 0.00 0.00 0.00 0.00
0.00 0.00 0.00 0.00 0.00 0.00 0.01 0.01 0.01 0.01 0.01 0.01 0.01 0.00 0.00 0.00 0.00 0.00 0.00 0.00 0.00 0.00 0.00 0.00 0.00 0.00 0.00 0.00 0.00 0.00 0.00 0.01 0.01 0.01 0.01 0.01 0.00 0.00 0.00 0.00 0.00 0.00 0.01
MSLP
1011.43 1011.69 1011.99 1012.29 1012.52 1012.66 1012.70 1012.67 1012.60 1012.54 1012.53 1012.59 1012.74 1012.95 1013.21 1013.47 1013.72 1013.93 1014.10 1014.24 1014.38 1014.53 1014.73 1014.97 1015.26 1015.58 1015.92 1016.24 1016.52 1016.74 1016.90 1016.97 1016.98 1016.92 1016.82 1016.69 1016.53 1016.37 1016.22 1016.08 1015.96 1015.88 1015.84
1011.24 1011.44 1011.67 1011.90 1012.06 1012.15 1012.15 1012.09 1012.00 1011.92 1011.90 1011.95 1012.07 1012.26 1012.47 1012.70 1012.91 1013.09 1013.23 1013.35 1013.47 1013.62 1013.82 1014.07 1014.38 1014.74 1015.13 1015.52 1015.89 1016.21 1016.48 1016.68 1016.82 1016.89 1016.91 1016.88 1016.82 1016.72 1016.60 1016.48 1016.36 1016.24 1016.15
1011.20 1011.34 1011.51 1011.65 1011.75 1011.77 1011.71 1011.61 1011.50 1011.40 1011.35 1011.38 1011.46 1011.60 1011.76 1011.93 1012.08 1012.20 1012.30 1012.40 1012.51 1012.66 1012.87 1013.15 1013.51 1013.92 1014.38 1014.85 1015.32 1015.75 1016.14 1016.47 1016.73 1016.94 1017.09 1017.17 1017.20 1017.18 1017.12 1017.03 1016.91 1016.78 1016.65
1011.30 1011.41 1011.52 1011.60 1011.62 1011.57 1011.47 1011.33 1011.18 1011.06 1010.98 1010.96 1011.00 1011.07 1011.16 1011.25 1011.32 1011.37 1011.41 1011.47 1011.56 1011.72 1011.95 1012.28 1012.69 1013.18 1013.72 1014.28 1014.84 1015.38 1015.88 1016.32 1016.71 1017.03 1017.28 1017.48 1017.60 1017.66 1017.66 1017.61 1017.51 1017.37 1017.22
1011.52 1011.62 1011.69 1011.72 1011.69 1011.59 1011.44 1011.27 1011.09 1010.95 1010.84 1010.78 1010.76 1010.76 1010.77 1010.76 1010.74 1010.71 1010.68 1010.69 1010.76 1010.92 1011.18 1011.55 1012.03 1012.59 1013.20 1013.85 1014.49 1015.11 1015.69 1016.22 1016.70 1017.11 1017.46 1017.73 1017.94 1018.07 1018.12 1018.11 1018.03 1017.90 1017.74
1011.82 1011.92 1011.98 1011.99 1011.92 1011.79 1011.62 1011.43 1011.25 1011.09 1010.97 1010.88 1010.81 1010.74 1010.66 1010.55 1010.44 1010.32 1010.22 1010.18 1010.23 1010.39 1010.68 1011.09 1011.61 1012.23 1012.90 1013.60 1014.30 1014.97 1015.60 1016.18 1016.70 1017.16 1017.56 1017.89 1018.15 1018.33 1018.43 1018.46 1018.41 1018.30 1018.15
1012.15 1012.27 1012.34 1012.33 1012.26 1012.13 1011.96 1011.79 1011.62 1011.48 1011.36 1011.25 1011.15 1011.02 1010.88 1010.70 1010.49 1010.30 1010.15 1010.06 1010.09 1010.24 1010.54 1010.98 1011.54 1012.18 1012.89 1013.61 1014.32 1015.00 1015.63 1016.21 1016.73 1017.20 1017.61 1017.96 1018.24 1018.45 1018.58 1018.64 1018.62 1018.53 1018.40
1012.46 1012.60 1012.68 1012.70 1012.64 1012.54 1012.41 1012.27 1012.15 1012.05 1011.96 1011.87 1011.76 1011.61 1011.43 1011.20 1010.95 1010.71 1010.51 1010.40 1010.41 1010.56 1010.86 1011.31 1011.87 1012.51 1013.20 1013.91 1014.58 1015.22 1015.81 1016.34 1016.82 1017.25 1017.64 1017.97 1018.24 1018.46 1018.60 1018.68 1018.69 1018.64 1018.54
1012.72 1012.89 1013.00 1013.04 1013.02 1012.97 1012.90 1012.84 1012.79 1012.75 1012.72 1012.68 1012.60 1012.47 1012.28 1012.03 1011.77 1011.51 1011.30 1011.18 1011.19 1011.34 1011.64 1012.07 1012.61 1013.22 1013.86 1014.50 1015.10 1015.66 1016.16 1016.61 1017.02 1017.38 1017.70 1017.99 1018.24 1018.44 1018.59 1018.67 1018.70 1018.67 1018.61
1012.97 1013.16 1013.29 1013.36 1013.40 1013.41 1013.42 1013.44 1013.48 1013.54 1013.59 1013.61 1013.59 1013.50 1013.34 1013.13 1012.88 1012.65 1012.45 1012.35 1012.37 1012.52 1012.80 1013.21 1013.71 1014.25 1014.82 1015.36 1015.86 1016.31 1016.70 1017.04 1017.34 1017.62 1017.87 1018.10 1018.30 1018.47 1018.60 1018.69 1018.73 1018.73 1018.70
1013.23 1013.43 1013.59 1013.71 1013.80 1013.88 1013.97 1014.09 1014.22 1014.37 1014.51 1014.61 1014.66 1014.63 1014.53 1014.38 1014.18 1013.99 1013.84 1013.77 1013.81 1013.97 1014.24 1014.61 1015.05 1015.51 1015.98 1016.41 1016.79 1017.11 1017.38 1017.61 1017.81 1017.99 1018.16 1018.33 1018.48 1018.62 1018.72 1018.80 1018.84 1018.85 1018.84
1013.57 1013.78 1013.96 1014.11 1014.26 1014.41 1014.59 1014.78 1015.01 1015.23 1015.45 1015.63 1015.74 1015.78 1015.76 1015.66 1015.54 1015.41 1015.32 1015.30 1015.37 1015.53 1015.79 1016.12 1016.48 1016.86 1017.22 1017.54 1017.80 1018.00 1018.16 1018.28 1018.39 1018.49 1018.59 1018.70 1018.81 1018.91 1018.99 1019.05 1019.08 1019.09 1019.08
1014.03 1014.24 1014.44 1014.63 1014.83 1015.04 1015.28 1015.54 1015.83 1016.11 1016.39 1016.61 1016.78 1016.88 1016.91 1016.89 1016.83 1016.77 1016.74 1016.77 1016.87 1017.04 1017.28 1017.57 1017.88 1018.17 1018.43 1018.64 1018.80 1018.90 1018.97 1019.01 1019.04 1019.09 1019.14 1019.20 1019.27 1019.34 1019.39 1019.42 1019.43 1019.43 1019.41
1014.60 1014.83 1015.05 1015.28 1015.52 1015.77 1016.05 1016.35 1016.67 1016.99 1017.28 1017.54 1017.73 1017.86 1017.93 1017.96 1017.96 1017.96 1017.98 1018.06 1018.18 1018.37 1018.60 1018.85 1019.09 1019.32 1019.50 1019.63 1019.71 1019.74 1019.74 1019.73 1019.73 1019.73 1019.76 1019.80 1019.84 1019.88 1019.91 1019.91 1019.89 1019.86 1019.82
1015.27 1015.52 1015.77 1016.02 1016.29 1016.57 1016.88 1017.20 1017.52 1017.83 1018.12 1018.36 1018.55 1018.69 1018.78 1018.83 1018.87 1018.91 1018.98 1019.09 1019.24 1019.43 1019.65 1019.88 1020.08 1020.26 1020.38 1020.46 1020.48 1020.48 1020.45 1020.42 1020.40 1020.40 1020.41 1020.44 1020.47 1020.49 1020.49 1020.47 1020.41 1020.34 1020.27
1015.94 1016.22 1016.50 1016.78 1017.08 1017.38 1017.69 1018.01 1018.31 1018.60 1018.85 1019.07 1019.23 1019.34 1019.43 1019.49 1019.54 1019.61 1019.72 1019.85 1020.03 1020.23 1020.44 1020.65 1020.83 1020.98 1021.07 1021.12 1021.13 1021.11 1021.09 1021.06 1021.05 1021.05 1021.08 1021.10 1021.12 1021.13 1021.10 1021.05 1020.96 1020.85 1020.73
1016.53 1016.84 1017.15 1017.46 1017.78 1018.10 1018.41 1018.72 1019.00 1019.25 1019.47 1019.64 1019.76 1019.85 1019.92 1019.97 1020.04 1020.13 1020.25 1020.41 1020.61 1020.82 1021.04 1021.24 1021.42 1021.55 1021.64 1021.68 1021.70 1021.68 1021.67 1021.66 1021.66 1021.68 1021.72 1021.74 1021.76 1021.75 1021.71 1021.62 1021.51 1021.36 1021.21
1016.95 1017.29 1017.63 1017.98 1018.32 1018.66 1018.98 1019.28 1019.54 1019.77 1019.95 1020.08 1020.17 1020.24 1020.29 1020.35 1020.42 1020.53 1020.68 1020.86 1021.07 1021.30 1021.53 1021.74 1021.92 1022.06 1022.16 1022.21 1022.23 1022.24 1022.24 1022.24 1022.26 1022.29 1022.32 1022.35 1022.35 1022.33 1022.27 1022.16 1022.02 1021.85 1021.67
1017.16 1017.52 1017.89 1018.28 1018.65 1019.02 1019.36 1019.67 1019.93 1020.15 1020.31 1020.43 1020.51 1020.57 1020.62 1020.69 1020.78 1020.91 1021.08 1021.29 1021.53 1021.78 1022.02 1022.25 1022.44 1022.59 1022.69 1022.76 1022.79 1022.80 1022.81 1022.82 1022.84 1022.86 1022.88 1022.89 1022.88 1022.83 1022.74 1022.62 1022.46 1022.28 1022.09
1017.15 1017.53 1017.94 1018.36 1018.78 1019.18 1019.56 1019.90 1020.18 1020.41 1020.59 1020.72 1020.81 1020.89 1020.96 1021.05 1021.17 1021.33 1021.53 1021.77 1022.03 1022.31 1022.58 1022.82 1023.02 1023.18 1023.29 1023.35 1023.39 1023.40 1023.39 1023.39 1023.38 1023.38 1023.36 1023.34 1023.29 1023.22 1023.11 1022.97 1022.81 1022.63 1022.44
1016.98 1017.39 1017.83 1018.28 1018.75 1019.20 1019.62 1020.01 1020.34 1020.61 1020.82 1020.99 1021.12 1021.23 1021.34 1021.47 1021.64 1021.83 1022.07 1022.34 1022.63 1022.92 1023.20 1023.46 1023.66 1023.82 1023.93 1023.99 1024.00 1023.99 1023.96 1023.91 1023.86 1023.81 1023.75 1023.68 1023.59 1023.48 1023.35 1023.20 1023.03 1022.86 1022.70
1016.75 1017.17 1017.64 1018.14 1018.65 1019.15 1019.63 1020.07 1020.46 1020.78 1021.05 1021.28 1021.46 1021.62 1021.78 1021.96 1022.16 1022.40 1022.67 1022.97 1023.28 1023.59 1023.88 1024.13 1024.33 1024.48 1024.57 1024.61 1024.60 1024.55 1024.47 1024.37 1024.26 1024.15 1024.02 1023.89 1023.75 1023.60 1023.45 1023.29 1023.13 1022.97 1022.84
1016.55 1016.98 1017.48 1018.01 1018.57 1019.12 1019.65 1020.15 1020.59 1020.98 1021.30 1021.59 1021.83 1022.04 1022.26 1022.48 1022.72 1022.99 1023.29 1023.60 1023.92 1024.24 1024.53 1024.77 1024.96 1025.09 1025.16 1025.16 1025.11 1025.01 1024.88 1024.72 1024.55 1024.37 1024.18 1023.99 1023.80 1023.62 1023.44 1023.27 1023.11 1022.97 1022.86
1016.47 1016.91 1017.42 1017.98 1018.57 1019.16 1019.73 1020.27 1020.76 1021.20 1021.58 1021.91 1022.20 1022.47 1022.72 1022.98 1023.26 1023.55 1023.86 1024.18 1024.50 1024.81 1025.09 1025.32 1025.49 1025.60 1025.64 1025.60 1025.52 1025.37 1025.19 1024.98 1024.75 1024.51 1024.26 1024.03 1023.79 1023.58 1023.38 1023.20 1023.04 1022.91 1022.82
1016.53 1016.99 1017.51 1018.09 1018.69 1019.30 1019.90 1020.46 1020.98 1021.44 1021.85 1022.22 1022.54 1022.84 1023.13 1023.41 1023.70 1024.01 1024.32 1024.65 1024.96 1025.26 1025.52 1025.73 1025.89 1025.97 1025.98 1025.93 1025.81 1025.63 1025.41 1025.16 1024.89 1024.61 1024.33 1024.06 1023.80 1023.56 1023.34 1023.16 1022.99 1022.87 1022.77
1016.75 1017.21 1017.74 1018.31 1018.91 1019.52 1020.12 1020.68 1021.21 1021.68 1022.10 1022.48 1022.83 1023.14 1023.44 1023.74 1024.04 1024.35 1024.67 1024.98 1025.29 1025.57 1025.82 1026.02 1026.15 1026.22 1026.22 1026.15 1026.02 1025.83 1025.59 1025.33 1025.05 1024.75 1024.46 1024.18 1023.90 1023.65 1023.42 1023.22 1023.05 1022.91 1022.81
Thickness
5763 5761 5759 5757 5756 5754 5753 5752 5751 5750 5748 5746 5746 5745 5743 5742 5741 5739 5738 5737 5735 5734 5734 5732 5731 5731 5729 5729 5728 5727 5725 5722 5717 5721 5725 5727 5727 5726 5726 5725 5724 5722 5720
5762 5759 5756 5754 5752 5752 5750 5750 5749 5747 5745 5744 5743 5742 5740 5739 5738 5736 5734 5733 5732 5730 5729 5728 5727 5727 5725 5724 5722 5722 5721 5720 5716 5714 5717 5719 5719 5720 5719 5717 5717 5716 5714
5759 5756 5753 5750 5749 5748 5747 5747 5745 5743 5742 5741 5740 5739 5737 5736 5735 5734 5732 5730 5729 5727 5726 5725 5723 5722 5720 5719 5718 5717 5716 5716 5713 5710 5709 5711 5711 5711 5710 5709 5709 5708 5707
5756 5753 5750 5748 5746 5746 5745 5743 5741 5739 5738 5737 5736 5735 5734 5733 5731 5730 5729 5726 5724 5723 5722 5721 5720 5718 5716 5715 5713 5712 5710 5708 5707 5704 5702 5701 5701 5702 5700 5697 5696 5697 5697
5752 5749 5747 5746 5745 5743 5741 5739 5737 5735 5734 5733 5731 5730 5729 5728 5727 5725 5723 5721 5718 5716 5715 5715 5714 5713 5712 5710 5708 5705 5703 5701 5698 5695 5693 5692 5690 5689 5687 5687 5685 5685 5686
5749 5746 5745 5743 5741 5738 5736 5735 5732 5729 5728 5726 5725 5724 5723 5722 5721 5719 5717 5714 5712 5710 5709 5708 5707 5705 5704 5703 5702 5700 5698 5694 5690 5688 5685 5682 5681 5680 5679 5678 5675 5674 5672
5745 5743 5741 5739 5737 5734 5732 5729 5726 5723 5722 5719 5718 5716 5715 5713 5714 5712 5711 5708 5706 5704 5702 5700 5700 5697 5695 5694 5693 5692 5689 5687 5685 5681 5677 5674 5672 5671 5669 5668 5666 5664 5662
5740 5738 5736 5734 5731 5729 5725 5722 5719 5717 5714 5712 5710 5709 5708 5706 5706 5705 5703 5700 5697 5695 5693 5692 5690 5688 5687 5686 5684 5681 5678 5676 5675 5673 5670 5667 5665 5663 5661 5659 5656 5654 5653
5735 5732 5731 5729 5726 5722 5719 5715 5713 5710 5707 5704 5703 5701 5700 5697 5697 5696 5694 5691 5688 5685 5684 5682 5681 5679 5677 5677 5674 5670 5667 5664 5663 5662 5659 5657 5655 5653 5651 5648 5645 5641 5638
5729 5727 5726 5724 5720 5716 5713 5709 5707 5704 5700 5697 5694 5691 5690 5687 5687 5687 5686 5683 5679 5675 5673 5671 5669 5668 5666 5665 5663 5659 5655 5652 5651 5649 5646 5644 5642 5640 5638 5635 5633 5629 5625
5723 5721 5718 5716 5713 5710 5706 5703 5699 5696 5692 5688 5685 5682 5679 5677 5677 5677 5676 5674 5670 5666 5662 5659 5656 5655 5654 5652 5650 5647 5643 5641 5638 5635 5632 5629 5627 5626 5624 5622 5620 5617 5613
5715 5713 5709 5707 5705 5702 5698 5694 5691 5688 5684 5679 5676 5672 5669 5667 5665 5664 5664 5663 5660 5656 5651 5647 5645 5643 5642 5640 5637 5634 5631 5629 5625 5621 5617 5614 5611 5610 5609 5607 5606 5603 5600
5705 5702 5699 5697 5694 5692 5689 5685 5681 5679 5675 5671 5667 5663 5658 5656 5654 5654 5653 5651 5648 5645 5640 5637 5634 5632 5630 5627 5624 5621 5618 5614 5610 5606 5602 5598 5597 5595 5595 5593 5591 5589 5586
5695 5691 5688 5685 5682 5678 5676 5674 5671 5668 5665 5662 5657 5653 5649 5646 5644 5643 5641 5639 5637 5634 5630 5627 5624 5620 5617 5614 5610 5607 5604 5600 5596 5591 5587 5585 5584 5582 5580 5577 5574 5572 5569
5685 5681 5677 5673 5670 5665 5661 5657 5656 5654 5654 5652 5647 5644 5640 5636 5632 5633 5631 5628 5626 5622 5620 5616 5611 5607 5603 5598 5595 5591 5589 5586 5582 5578 5574 5571 5569 5566 5564 5561 5558 5555 5551
5676 5671 5667 5663 5659 5656 5652 5646 5642 5642 5641 5640 5638 5634 5629 5627 5624 5623 5620 5618 5614 5612 5608 5601 5596 5591 5587 5584 5580 5577 5574 5570 5567 5564 5560 5557 5553 5550 5548 5545 5542 5538 5534
5668 5663 5659 5655 5651 5647 5644 5641 5634 5629 5628 5626 5624 5622 5620 5617 5615 5612 5609 5606 5602 5599 5594 5587 5582 5577 5573 5570 5567 5563 5559 5556 5553 5550 5546 5543 5540 5537 5534 5530 5527 5524 5521
5659 5656 5652 5647 5643 5639 5635 5632 5629 5624 5619 5613 5611 5610 5608 5606 5604 5601 5598 5595 5588 5584 5579 5574 5569 5565 5561 5557 5554 5550 5546 5543 5540 5537 5533 5530 5527 5524 5520 5516 5513 5510 5508
5650 5646 5642 5638 5634 5630 5626 5622 5618 5614 5609 5604 5601 5599 5597 5595 5592 5589 5586 5581 5575 5569 5565 5561 5557 5553 5549 5545 5541 5538 5534 5531 5527 5524 5521 5518 5514 5511 5507 5504 5501 5499 5497
5641 5638 5634 5629 5625 5621 5617 5613 5608 5604 5599 5595 5592 5588 5586 5583 5579 5575 5571 5567 5562 5556 5552 5548 5544 5540 5537 5533 5529 5526 5522 5519 5515 5511 5508 5505 5502 5499 5495 5493 5490 5488 5485
5631 5628 5625 5620 5616 5612 5608 5604 5599 5594 5589 5585 5581 5579 5576 5572 5566 5562 5558 5554 5550 5545 5540 5536 5532 5528 5524 5521 5518 5514 5511 5506 5503 5500 5497 5494 5491 5488 5485 5483 5480 5478 5476
5621 5618 5614 5610 5606 5603 5599 5594 5589 5584 5580 5575 5571 5568 5565 5560 5555 5550 5546 5542 5538 5534 5530 5525 5520 5516 5513 5509 5506 5503 5499 5495 5492 5490 5487 5484 5481 5479 5476 5474 5472 5469 5467
5611 5607 5604 5601 5597 5594 5589 5583 5579 5574 5569 5565 5561 5556 5552 5548 5543 5539 5535 5531 5527 5522 5518 5514 5510 5505 5502 5499 5496 5493 5489 5485 5483 5480 5477 5475 5472 5470 5468 5465 5464 5462 5460
5602 5598 5595 5591 5587 5582 5578 5573 5568 5564 5559 5555 5550 5545 5541 5537 5533 5529 5525 5521 5516 5512 5507 5503 5499 5495 5492 5489 5486 5483 5480 5478 5475 5472 5469 5466 5464 5462 5460 5458 5457 5456 5454
5593 5589 5585 5580 5577 5572 5568 5563 5559 5554 5550 5545 5540 5536 5531 5528 5523 5519 5515 5510 5505 5501 5497 5493 5489 5485 5482 5479 5477 5474 5472 5470 5467 5465 5463 5460 5458 5456 5454 5452 5450 5449 5448
5583 5579 5575 5571 5567 5563 5558 5553 5549 5545 5540 5536 5531 5526 5522 5518 5514 5509 5505 5500 5495 5490 5486 5482 5479 5476 5473 5470 5468 5466 5464 5462 5460 5458 5457 5454 5452 5450 5448 5446 5445 5443 5442